Annette Island, AK

6:13 PM AKDT on September 25, 2017 (GMT -0800)
Annette Island

Weather History for PANT - September, 2013

Change the Weather History Date:

Monday, September 2, 2013

  Actual Average Record
Temperature  
Mean Temperature 61 °F 57 °F  
Max Temperature 71 °F 62 °F 79 °F (1974)
Min Temperature 50 °F 51 °F 43 °F (2015)
Degree Days  
Heating Degree Days 4    
Month to date heating degree days 8 17  
Since 1 July heating degree days 310 418  
Cooling Degree Days 0    
Month to date cooling degree days 0  
Year to date cooling degree days 22  
Growing Degree Days 10 (Base 50)    
Moisture  
Dew Point 55 °F    
Average Humidity 0    
Maximum Humidity 0    
Minimum Humidity 0    
Precipitation  
Precipitation 0.00 in 0.28 in 4.36 in (2010)
Month to date precipitation 0.00 0.56  
Year to date precipitation 51.60 55.47  
Snow  
Snow 0.00 in 0.00 in 0.00 in (2015)
Month to date snowfall 0.0 0.0  
Since 1 July snowfall 0.0 0.0  
Since 1 September snowfall 0.0 0.0  
Snow Depth 0.00 in    
Sea Level Pressure  
Sea Level Pressure 29.93 in    
Wind  
Wind Speed 1 mph (South)    
Max Wind Speed 7 mph    
Max Gust Speed 9 mph    
Visibility 4 miles    
Events Fog    
T = Trace of Precipitation, MM = Missing Value Source: NWS Daily Summary

Daily Weather History Graph

Daily Weather History Graph

Search for Another Location

Airport or City:

Trip Planner

Search our weather history database for the weather conditions in past years. The results will help you decide how hot, cold, wet, or windy it might be!

Date:

Astronomy

Sep. 02, 2013 Rise Set
Actual Time 5:55 AM AKDT 7:35 PM AKDT
Civil Twilight 5:17 AM AKDT 8:13 PM AKDT
Nautical Twilight 4:29 AM AKDT 9:00 PM AKDT
Astronomical Twilight 3:35 AM AKDT 9:53 PM AKDT
Moon 3:02 AM AKDT (9/2) 6:03 PM AKDT (9/2)
Length of Visible Light 14h 56m
Length of Day
13h 39m
Waning Crescent, 7% of the Moon is Illuminated
Sep 2
Waning Crescent
Sep 5
New
Sep 12
First Quarter
Sep 19
Full
Sep 26
Last Quarter

Hourly Weather History & Observations

Time (AKDT) Temp. Dew Point Humidity Pressure Visibility Wind Dir Wind Speed Gust Speed Precip Events Conditions
12:03 AM 53.6 °F 51.8 °F 94% 29.88 in 0.5 mi Calm Calm - N/A Fog Fog
12:18 AM 51.8 °F 51.8 °F 100% 29.87 in 0.2 mi Calm Calm - N/A Fog Fog
12:41 AM 50.0 °F 50.0 °F 100% 29.88 in 0.8 mi Calm Calm - N/A   Mist
12:53 AM 50.0 °F 50.0 °F 100% 29.88 in 1.0 mi Calm Calm - N/A   Mist
1:05 AM 50.0 °F 50.0 °F 100% 29.87 in 3.0 mi Calm Calm - N/A   Mostly Cloudy
1:36 AM 50.0 °F 50.0 °F 100% 29.88 in 1.5 mi Calm Calm - N/A   Mist
1:44 AM 51.8 °F 50.0 °F 94% 29.88 in 0.5 mi Calm Calm - N/A Fog Fog
1:53 AM 52.0 °F 51.1 °F 97% 29.88 in 0.5 mi Calm Calm - N/A Fog Fog
2:04 AM 51.8 °F 51.8 °F 100% 29.88 in 0.2 mi SE 3.5 mph - N/A Fog Fog
2:14 AM 53.6 °F 53.6 °F 100% 29.88 in 0.5 mi Calm Calm - N/A Fog Fog
2:30 AM 51.8 °F 51.8 °F 100% 29.88 in 0.2 mi Calm Calm - N/A Fog Fog
2:51 AM 53.6 °F 53.6 °F 100% 29.88 in 0.2 mi Calm Calm - N/A Fog Fog
2:53 AM 53.1 °F 53.1 °F 100% 29.88 in 0.2 mi Calm Calm - N/A Fog Fog
3:53 AM 52.0 °F 52.0 °F 100% 29.88 in 0.2 mi Calm Calm - N/A Fog Fog
4:53 AM 52.0 °F 52.0 °F 100% 29.89 in 0.2 mi Calm Calm - N/A Fog Fog
5:53 AM 52.0 °F 52.0 °F 100% 29.90 in 0.2 mi Calm Calm - N/A Fog Fog
6:53 AM 53.1 °F 53.1 °F 100% 29.91 in 0.2 mi Calm Calm - N/A Fog Fog
7:12 AM 53.6 °F 53.6 °F 100% 29.91 in 0.2 mi Calm Calm - N/A Fog Fog
7:53 AM 55.0 °F 55.0 °F 100% 29.93 in 0.2 mi Calm Calm - N/A Fog Fog
8:04 AM 55.4 °F 55.4 °F 100% 29.92 in 0.5 mi Calm Calm - N/A Fog Fog
8:19 AM 55.4 °F 55.4 °F 100% 29.92 in 0.2 mi Calm Calm - N/A Fog Fog
8:53 AM 55.9 °F 55.9 °F 100% 29.93 in 0.5 mi Calm Calm - N/A Fog Fog
9:35 AM 57.2 °F 57.2 °F 100% 29.93 in 2.0 mi NW 5.8 mph - N/A   Overcast
9:44 AM 57.2 °F 57.2 °F 100% 29.93 in 3.0 mi Variable 3.5 mph - N/A   Overcast
9:53 AM 57.9 °F 57.9 °F 100% 29.94 in 6.0 mi Calm Calm - N/A   Overcast
10:53 AM 57.9 °F 57.9 °F 100% 29.95 in 10.0 mi NW 3.5 mph - N/A   Overcast
11:15 AM 60.8 °F 60.8 °F 100% 29.94 in 10.0 mi Variable 3.5 mph - N/A   Overcast
11:53 AM 63.0 °F 59.0 °F 87% 29.95 in 10.0 mi Calm Calm - N/A   Mostly Cloudy
12:09 PM 66.2 °F 60.8 °F 83% 29.95 in 10.0 mi Calm Calm - N/A   Scattered Clouds
12:53 PM 68.0 °F 60.1 °F 76% 29.95 in 10.0 mi WNW 4.6 mph - N/A   Scattered Clouds
1:53 PM 69.1 °F 59.0 °F 70% 29.96 in 10.0 mi Calm Calm - N/A   Scattered Clouds
2:53 PM 70.0 °F 57.9 °F 65% 29.96 in 10.0 mi WNW 3.5 mph - N/A   Scattered Clouds
3:53 PM 69.1 °F 57.9 °F 68% 29.95 in 10.0 mi Variable 3.5 mph - N/A   Scattered Clouds
4:53 PM 64.9 °F 57.9 °F 78% 29.95 in 10.0 mi Calm Calm - N/A   Scattered Clouds
5:53 PM 60.1 °F 57.0 °F 90% 29.95 in 10.0 mi Calm Calm - N/A   Clear
6:40 PM 57.2 °F 55.4 °F 94% 29.95 in 10.0 mi South 3.5 mph - N/A   Scattered Clouds
6:53 PM 57.9 °F 55.9 °F 93% 29.96 in 10.0 mi South 3.5 mph - N/A   Scattered Clouds
7:04 PM 55.4 °F 55.4 °F 100% 29.96 in 2.0 mi SSE 3.5 mph - N/A   Mostly Cloudy
7:08 PM 55.4 °F 55.4 °F 100% 29.96 in 1.0 mi Calm Calm - N/A   Mist
7:53 PM 55.0 °F 54.0 °F 96% 29.96 in 0.2 mi Calm Calm - N/A Fog Fog
8:05 PM 55.4 °F 53.6 °F 94% 29.96 in 0.8 mi Calm Calm - N/A   Mist
8:15 PM 53.6 °F 53.6 °F 100% 29.97 in 2.5 mi Calm Calm - N/A   Mostly Cloudy
8:22 PM 55.4 °F 53.6 °F 94% 29.97 in 10.0 mi Calm Calm - N/A   Scattered Clouds
8:53 PM 53.1 °F 53.1 °F 100% 29.97 in 10.0 mi Calm Calm - N/A   Clear
9:53 PM 53.1 °F 53.1 °F 100% 29.98 in 10.0 mi Calm Calm - N/A   Clear
10:53 PM 54.0 °F 54.0 °F 100% 29.98 in 10.0 mi Calm Calm - N/A   Clear
11:30 PM 55.4 °F 53.6 °F 94% 29.98 in 3.0 mi SE 3.5 mph - N/A   Scattered Clouds
11:32 PM 55.4 °F 53.6 °F 94% 29.98 in 1.5 mi SE 3.5 mph - N/A   Mostly Cloudy
11:40 PM 53.6 °F 53.6 °F 100% 29.98 in 0.5 mi Calm Calm - N/A Fog Fog
11:53 PM 54.0 °F 54.0 °F 100% 29.99 in 0.2 mi Calm Calm - N/A Fog Fog